Database: COMPET-N - COOP - 3PL - 4PL - CNDOOM

WAD: Doom | Doom 2 | TNT | Plutonia | AV | HR | Scythe | MM | MM2 | Requiem | CE
Category: speed | nmare | max | nm100s | tyson | pacifist | fast | respawn | nomo | misc | built | all
Highscore: ALL | IWAD | PWAD | Country | Continent

< Previous map       Next map >
Remove: wad | map | category | player | allE1M3
MapPlayerTimeDateFilenameCommentsDL
E1M3: Toxin RefineryJonathan Rimmer40.002001-04-08e1m3-040.zip - 263
E1M3: Toxin RefineryJonathan Rimmer41.002000-06-27e1m3-041.zip - 124
E1M3: Toxin RefineryAndy Kempling41.001998-08-31e1m3-b41.zip - 108
E1M3: Toxin RefineryJonathan Rimmer42.001999-12-12e1m3-042.zip - 132
E1M3: Toxin RefineryAnders Johnsen44.001999-01-14e1m3-044.zip - 97
E1M3: Toxin RefineryAnders Johnsen46.001998-08-21e1m3-046.zip - 97
E1M3: Toxin RefineryAnders Johnsen49.001998-07-15e1m3-049.zip - 86
E1M3: Toxin RefineryAndreas Kren57.001996-03-02e1m3-057.zip - 71
E1M3: Toxin RefineryKai-Uwe Humpert58.001996-05-17e1m3-058.zip - 91
E1M3: Toxin RefineryAndreas Kren1:00.001995-10-16e1m3-100.zip - 74
E1M3: Toxin RefineryEelco de Vries2:28.001995-06-28e1m3-228.zip - 63
E1M3: Toxin RefineryJonathan Weeks2:36.001995-06-20e1m3-236.zip - 56
E1M3: Toxin RefineryEelco de Vries2:42.001995-06-15e1m3-242.zip - 65
E1M3: Toxin RefineryJonathan Matthies3:22.001994-12-13e1m3-322.zip - 159
E1M3: Toxin RefineryDrew DeVore54.002002-10-18n1m3-054.zip214
E1M3: Toxin RefineryAnders Johnsen58.002002-02-26n1m3-058.zip - 96
E1M3: Toxin RefineryDrew DeVore1:03.002001-11-09n1m3-103.zip - 141
E1M3: Toxin RefineryAnders Johnsen1:07.002000-04-03n1m3-107.zip - 74
E1M3: Toxin RefineryVincent Catalaa1:08.002000-02-19n1m3-108.zip - 80
E1M3: Toxin RefineryAnders Johnsen1:10.002000-02-18n1m3-110.zip - 71
E1M3: Toxin RefineryAdam Williamson1:20.002000-02-16n1m3-120.zip - 83
E1M3: Toxin RefineryAnders Johnsen1:24.001998-09-02n1m3-124.zip - 78
E1M3: Toxin RefineryAndy Kempling1:34.001998-08-31n1m3-134.zip - 78
E1M3: Toxin RefineryAnders Johnsen1:46.001998-08-27n1m3-146.zip - 64
E1M3: Toxin RefineryAnders Johnsen2:37.001998-08-21n1m3-237.zip - 79
E1M3: Toxin RefineryDavorin Meštrić3:18.001995-12-04dme1m3nm.zip - 59
E1M3: Toxin RefineryAndreas Kren7:42.001995-11-07e1m3-nm1.zip - 59
E1M3: Toxin RefineryDrew DeVore2:24.002002-04-04e1m3-224.zip - 200
E1M3: Toxin RefineryRadek Pecka2:40.002000-08-17e1m3-240.zip - 94
E1M3: Toxin RefineryAnders Johnsen2:41.001998-07-19e1m3-241.zip - 55
E1M3: Toxin RefineryThomas Zajic2:56.001997-06-29e1m3-256.zip - 163
E1M3: Toxin RefineryThomas Zajic3:25.001995-12-15e1m3-325.zip - 54
E1M3: Toxin RefineryThomas Zajic4:10.001995-10-27e1m3-410.zip - 63
E1M3: Toxin RefineryAndreas Kren4:23.001995-10-16e1m3-423.zip - 64
E1M3: Toxin RefineryAndreas Kren4:30.001995-10-07e1m3-430.zip - 50
E1M3: Toxin RefineryThomas Zajic4:56.001995-09-30e1m3-456.zip - 49
E1M3: Toxin RefineryEelco de Vries5:44.001995-06-30e1m3-544.zip - 51
E1M3: Toxin RefineryEelco de Vries6:14.001995-05-24e1m3-614.zip - 45
E1M3: Toxin RefineryJim Leonard1:41.342018-11-28n1s3-141.zip - 101
E1M3: Toxin RefineryDrew DeVore1:49.002002-05-16n1s3-149.zip - 180
E1M3: Toxin RefineryVincent Catalaa1:59.002000-02-19n1s3-159.zip - 51
E1M3: Toxin RefineryAdam Williamson2:05.002000-02-17n1s3-205.zip - 90
E1M3: Toxin RefineryVincent Catalaa2:11.002000-01-07n1s3-211.zip - 74
E1M3: Toxin RefineryJonathan Rimmer2:29.002000-01-04n1s3-229.zip - 87
E1M3: Toxin RefineryVincent Catalaa2:36.001999-12-31n1s3-236.zip - 56
E1M3: Toxin RefineryJonathan Rimmer3:17.001999-12-11n1s3-317.zip - 42
E1M3: Toxin RefineryVincent Catalaa3:27.001999-06-27n1s3-327.zip - 67
E1M3: Toxin RefineryAndreas Kren6:00.001996-08-24n1s3-600.zip - 45
E1M3: Toxin RefineryJim Leonard5:18.002003-04-04t1m3-518.zip - 250
E1M3: Toxin RefineryAnders Johnsen5:19.002002-11-19t1m3-519.zip - 91
E1M3: Toxin RefineryJim Leonard5:44.002002-05-29t1m3-544.zip - 126
E1M3: Toxin RefineryRadek Pecka6:24.002001-12-02t1m3-624.zip - 86
E1M3: Toxin RefineryAnders Johnsen6:39.001999-02-25t1m3-639.zip - 69
E1M3: Toxin RefineryPatrick Martin9:06.001997-05-30t1m3-906.zip - 69
E1M3: Toxin RefineryAdam Williamson50.002004-12-21p1m3-050.zip - 197
E1M3: Toxin RefineryVincent Catalaa56.002000-02-25p1m3-056.zip - 64
E1M3: Toxin RefineryAdam Williamson58.002000-02-22p1m3-058.zip - 92
E1M3: Toxin RefineryVincent Catalaa1:16.001999-12-31p1m3-116.zip - 61
E1M3: Toxin RefinerySteffen Udluft24:11.001998-02-26p1m32411.zip - 53
E1M3: Toxin RefineryM. Phoenix Dailey2:35.002015-12-31f1m3-235.zip - 865
E1M3: Toxin RefineryM. Phoenix Dailey2:44.002015-10-03f1m3-244.zip - 203
E1M3: Toxin RefineryRadek Pecka3:04.002001-09-14f1m3-304.zip - 119
E1M3: Toxin RefineryRadek Pecka3:09.002000-11-19f1m3-309.zip - 84
E1M3: Toxin RefineryAnders Johnsen3:16.001998-09-04f1m3-316.zip - 81
E1M3: Toxin RefineryPeo Sjoblom3:41.001997-03-27f1m3-341.zip - 76
E1M3: Toxin RefineryThomas Zajic3:45.001996-07-04f1m3-345.zip - 58
E1M3: Toxin RefineryPeo Sjoblom5:15.001996-06-18f1m3-515.zip - 58
E1M3: Toxin RefineryAndy Olivera10:46.001996-06-04f13-1046.zip - 63
E1M3: Toxin RefineryEric Baker2:21.002012-02-16r1m3-221.zip - 251
E1M3: Toxin RefineryRadek Pecka2:27.002000-11-15r1m3-227.zip - 96
E1M3: Toxin RefineryChris Ratcliff2:32.002000-09-16r1m3-232.zip - 95
E1M3: Toxin RefineryAnders Johnsen2:33.001998-11-19r1m3-233.zip - 97
E1M3: Toxin RefineryAnders Johnsen2:49.001999-10-18r1m3-249.zip - 59
E1M3: Toxin RefineryAndreas Kren3:07.001996-11-07r1m3-307.zip - 53
E1M3: Toxin RefineryThomas Zajic3:54.001996-10-27r1m3-354.zip - 74
E1M3: Toxin RefineryAndreas Kren7:43.001995-10-28r1m3-743.zip - 57
E1M3: Toxin RefineryMarko van der Want36.342000-05-17u1303634.zip - 212
E1M3: Toxin RefineryArno Slagboom37.912000-05-07u1303791.zip - 104
Remove: wad | map | category | player | all